Location: Ladrillo (historical)
(32.8195°N, 117.2231°W)
Time: 03:21:37
(UTC+00:00)

Cosmos 2369 Rocket - Pass Details

Date: 26 May 2022
Orbit: 830 x 851 km, 71.0° (Epoch: 04 July)

Event Time Altitude Azimuth Distance (km) Brightness Sun altitude
Rises 12:08:17 0° 320° (NW) 3,374 5.2 -7.4°
Reaches altitude 10° 12:11:25 10° 302° (WNW) 2,436 4.3 -6.8°
Maximum altitude 12:15:09 19° 260° (W) 1,901 3.5 -6.1°
Drops below altitude 10° 12:18:52 10° 218° (SW) 2,431 4.0 -5.4°
Sets 12:22:01 0° 200° (SSW) 3,363 4.9 -4.9°
